www.pogodaiklimat.ru

Погода и климат >> Архив погоды >> Индонезия >> Серуи


ПОГОДА в Серуи

  • Прогноз погоды в Серуи
  • Монитор погоды в Серуи

АРХИВ ПОГОДЫ в Серуи

Время (UTC), дата Ветер
(напр.,м/с)
 
Видим.   Явления Облачность Т
(С)
Тd
(С)
f
(%)
Тe
(С)
Тes
(С)
Комфортность P
(гПа)
Po
(гПа)
Тmin
(С)
Tmax
(С)
R
(мм)
R24
(мм)
S
(см)
15 18.08 штиль 0 4000 м зарница 9/4
[Cb cap Ac trans]
+25.4 +22.7 85 +33 +33 очень
душно
1009.4 1009.0
18 18.08 С 2 2000 м слаб. дождь 10/4
[Cu Sc As op]
+24.8 +22.9 89 +33 +33 очень
душно
1007.7 1007.3 0.8
21 18.08 С 2 7000 м 9/4
[Cb cap Ac trans]
+24.8 +22.9 89 +33 +33 очень
душно
1008.8 1008.5 0.0
00 19.08 З 3 10 км 9/4 360 м
[Cu Sc Ac trans Ci fib]
+28.4 +24.3 78 +40 +43 очень
душно
1010.2 1009.9 +23.0
03 19.08 ЮЗ 3 10 км 9/1 360 м
[Cu hum Ac trans Ci fib]
+30.8 +24.5 69 +43 +53 опасность
перегрева
1008.5 1008.2
06 19.08 З 4 9000 м 8/1
[Cu Sc Ac trans Ci fib]
+30.0 +24.8 74 +43 +47 опасность
перегрева
1005.6 1005.2
09 19.08 штиль 0 8000 м 9/4 400 м
[Sc Ci fib]
+29.1 +24.0 74 +40 +40 очень
душно
1006.9 1006.6
12 19.08 штиль 0 5000 м в посл. час дождь 10/3
[Cu hum Ac trans Ci sp]
+27.5 +25.0 86 +39 +39 очень
душно
1009.6 1009.2 +30.7 0.0
15 19.08 ЮВ 4 н/о слаб. дождь 10/10
[Cb cap]
+26.6 +24.5 88 +37 +37 очень
душно
1009.8 1009.5 1
18 19.08 штиль 0 н/о в посл. час дождь 9/4
[Cb cap Ac As]
+25.6 +24.1 91 +35 +35 очень
душно
1007.7 1007.4 1
21 19.08 СВ 3 8000 м 9/1 400 м
[Cu hum Ac As]
+24.8 +23.2 91 +33 +33 очень
душно
1008.6 1008.2
00 20.08 штиль 0 10 км 9/3 360 м
[Cu med, cong Ac trans Ci fib]
+29.0 +24.7 78 +41 +47 опасность
перегрева
1010.0 1009.9 +23.4 10
03 20.08 ЮЗ 3 10 км 9/4 360 м
[Cu Sc Ac trans Ci fib]
+29.8 +22.8 66 +39 +46 очень
душно
1008.3 1008.0
06 20.08 В 3 10 км 6/4 360 м
[Cu med, cong Ac trans Ci fib]
+30.2 +24.4 71 +42 +47 опасность
перегрева
1006.4 1006.0
09 20.08 штиль 0 8000 м 9/6
[Cu hum Ac trans Ci fib]
+29.2 +25.0 78 +42 +42 опасность
перегрева
1007.3 1007.0
12 20.08 С 2 5000 м зарница 5/3
[Cb cap Ac trans Cs]
+27.2 +24.1 83 +38 +38 очень
душно
1009.0 1008.7 +31.0
15 20.08 С 2 4000 м в посл. час дождь {гроза} 10/5
[Cb cap Ac inh]
+25.9 +23.0 84 +35 +35 очень
душно
1009.5 1009.2
21 20.08 штиль 0 10 км {дождь} 3/1 360 м
[Cu med, cong Ci fib]
+24.7 +23.1 91 +33 +33 очень
душно
1008.2 1007.9 4
00 21.08 Ю 3 10 км 5/3 360 м
[Cu med, cong Ac trans Ci fib]
+27.4 +24.5 84 +39 +44 очень
душно
1009.0 1008.7 +23.0 4
03 21.08 З 3 10 км 9/3 360 м
[Cu med, cong Ac trans Ci fib]
+30.6 +24.0 68 +42 +50 опасность
перегрева
1007.4 1007.0
06 21.08 Ю 13 10 км 9/5
[Cu hum Ac trans Ci fib]
+31.6 +25.2 69 +46 +46 опасность
перегрева
1005.3 1004.9
15 21.08 С 3 н/о зарница 9/4
[Cb cap As trans]
+26.6 +24.4 88 +37 +37 очень
душно
1008.6 1008.2
18 21.08 штиль 0 н/о зарница 8/4
[Cb cap Ci fib]
+25.7 +24.0 90 +35 +35 очень
душно
1008.3 1008.0
21 21.08 СВ 2 8000 м 6/3 400 м
[Cu hum Ci fib]
+25.0 +23.2 90 +33 +33 очень
душно
1009.4 1009.0
00 22.08 В 3 8000 м 9/3 400 м
[Cu med, cong Ac trans Ci sp]
+30.2 +24.8 73 +43 +47 опасность
перегрева
1010.8 1010.4 +24.0
03 22.08 Ю 2 7000 м в посл. час дождь {гроза} 9/9
[Cb cap]
+29.1 +23.2 71 +39 +41 очень
душно
1009.3 1008.9 0.0
09 22.08 штиль 0 9000 м 9/3 400 м
[Cu med, cong Ac trans Ci sp]
+27.6 +24.7 84 +39 +39 очень
душно
1008.9 1008.6
12 22.08 СВ 3 н/о зарница 9/4
[Cb cap Ac As]
+25.8 +24.0 90 +36 +36 очень
душно
1011.5 1011.2 +31.6
15 22.08 С 3 н/о зарница 9/4
[Cb cap Ac As]
+25.2 +23.7 91 +34 +34 очень
душно
1010.5 1010.1
18 22.08 С 2 н/о зарница 9/9
[Cb cap]
+25.2 +23.7 91 +34 +34 очень
душно
1009.8 1009.5
21 22.08 штиль 0 8000 м {дождь} 9/6 360 м
[Cu med, cong Ac trans Ci fib]
+24.5 +23.1 92 +33 +33 очень
душно
1010.3 1010.0 0.0
00 23.08 ЮЗ 1 10 км 5/3
[Cu hum Ac trans Ci fib]
+27.9 +24.8 83 +40 +47 очень
душно
1011.5 1011.1 +23.1
03 23.08 ЮЗ 3 9000 м 9/1
[Cb cap Ac trans Ci fib]
+29.8 +25.2 76 +43 +52 опасность
перегрева
1010.1 1009.7
09 23.08 СВ 2 10 км 9/1
[Cu hum Ac trans Ci fib]
+29.3 +24.4 75 +41 +41 опасность
перегрева
1009.0 1008.7
12 23.08 штиль 0 4000 м слаб. дождь 10/3
[Cu hum As op]
+27.1 +24.4 85 +38 +38 очень
душно
1010.8 1010.5 +30.5 0.0
15 23.08 С 3 4000 м слаб. дождь 10/4
[Cb cap As op]
+25.8 +24.0 90 +36 +36 очень
душно
1010.0 1009.6 0.0
18 23.08 СВ 2 4000 м слаб. дождь 10/4
[Cb cap As trans]
+25.2 +23.7 91 +34 +34 очень
душно
1009.4 1009.1 1
21 23.08 С 3 8000 м 9/1 400 м
[Cu hum Ac trans]
+24.6 +23.3 92 +33 +33 очень
душно
1009.3 1008.9
00 24.08 штиль 0 10 км мгла {туман} 9/4 360 м
[Cu Sc Ac trans Ci fib]
+25.4 +24.3 94 +35 +41 очень
душно
1009.7 1009.4 +23.0
03 24.08 ЮВ 3 10 км 9/4 360 м
[Cu Sc Ac trans Ci fib]
+30.6 +24.2 69 +43 +49 опасность
перегрева
1007.9 1007.5
06 24.08 ЮЗ 3 10 км 9/4 360 м
[Cu Sc Ac trans Ci fib]
+30.8 +24.8 70 +44 +47 опасность
перегрева
1006.1 1005.7
09 24.08 С 4 8000 м {дождь, туман} 9/9
[Cb cap]
+28.6 +25.7 84 +42 +42 опасность
перегрева
1007.7 1007.3 0.0
12 24.08 С 2 5000 м в посл. час дождь 9/3
[Cu hum Ac As]
+27.6 +25.1 86 +40 +40 очень
душно
1009.5 1009.2 +31.1 0.5
15 24.08 штиль 0 4000 м зарница {туман} 10/4
[Cb cap Ac As]
+26.3 +24.5 90 +37 +37 очень
душно
1008.4 1008.1
18 24.08 С 2 н/о зарница 9/9
[Cb cap]
+26.2 +24.1 88 +36 +36 очень
душно
1007.8 1007.5
21 24.08 ЮВ 2 6000 м слаб. дождь 10/10 300 м
[Frnb]
+24.4 +23.1 92 +32 +32 очень
душно
1009.0 1005.6 3
03 25.08 З 3 10 км 9/4 360 м
[Cu Sc Ac trans Ci fib]
+30.4 +24.4 70 +42 +49 опасность
перегрева
1007.6 1007.2
06 25.08 ЮЗ 3 10 км 9/4 360 м
[Cu Sc Ac trans Ci fib]
+30.6 +24.6 70 +43 +46 опасность
перегрева
1005.9 1005.6
09 25.08 СВ 5 8000 м 9/1 400 м
[Cu hum Ac trans]
+28.0 +25.1 84 +40 +40 очень
душно
1007.1 1006.7
12 25.08 СВ 2 н/о зарница 9/5
[Cb cap Ac As]
+26.6 +23.6 84 +36 +36 очень
душно
1009.6 1009.3 +31.0

 

Местоположение метеостанции Серуи (Индонезия): широта -1.87 долгота 136.23 высота над уровнем моря 3 м.

В архиве по умолчанию представлена погода в Серуи за последнюю неделю. Архивные данные за месяц целиком и за предыдущие месяцы, начиная с января 2011 года, Вы можете получить, выбрав интересующий диапазон дат из раскрывающегося списка и нажав кнопку "Ввод!".


*Определитесь, кто Вы:
робот инопланетянин человек

Внимание! Время в таблицах - всемирное. Для получения местного времени необходимо прибавить поправку, которая равна 9 ч.

Смотрите также архив погоды в соседних городах и на ближайших метеорологических станциях:

Погода в Биаке (Индонезия) (78 км)
Погода в Набире (Индонезия) (182 км)
Погода в Энаротали (Индонезия) (229 км)
Погода в Маноквари (Индонезия) (266 км)
Погода в Сарми (Индонезия) (276 км)
Погода в Каимана (Индонезия) (341 км)
Погода в Коконао (Индонезия) (374 км)
Погода в Вамене (Индонезия) (389 км)
Погода в Факфаке (Индонезия) (456 км)
Погода в Сентани (Индонезия) (483 км)

Пояснения к столбцам:

Ветер - указаны скорость ветра в м/с - средняя за 10 мин, порывы в срок и между сроками (в фигурных скобках) и направление, откуда дует ветер: С - северный, СВ - северо-восточный, В - восточный, ЮВ - юго-восточный, Ю - южный, ЮЗ - юго-западный, З - западный, СЗ - северо-западный.
Видимость - горизонтальная дальность видимости в метрах или километрах. При видимости от 1 до 10 км при отсутствии осадков обычно наблюдается дымка, при ухудшении видимости до 1 км и менее - туман. В сухую погоду видимость может ухудшаться дымом, пылью или мглою.
Явления - указаны атмосферные явления, наблюдавшиеся в срок или в последний час перед сроком; фигурными скобками обозначены явления, наблюдавшиеся между сроками (за 1-3 часа до срока); квадратными скобками обозначены град или гололедные отложения с указанием их диаметра в мм.
Облачность - указаны через наклонную черту общая и нижняя облачность в баллах и высота нижней границы облаков в метрах; квадратными скобками обозначены формы облаков: Ci - перистые, Cs - перисто-слоистые, Cc - перисто-кучевые, Ac - высококучевые, As - высокослоистые, Sc - слоисто-кучевые, Ns - слоисто-дождевые, Cu - кучевые, Cb - кучево-дождевые. Подробнее классификацию облаков см. в Атласе облаков (PDF).
T - Температура воздуха - температура, измеренная на высоте 2 м над землей.
Td - Температура точки росы - температура, при понижении до которой содержащийся в воздухе водяной пар достигнет насыщения.
f - Относительная влажность воздуха - влажноcть воздуха, измеренная на высоте 2 м над землей.
Te - Эффективная температура - температура, которую ощущает одетый по сезону человек в тени. Характеристика душности погоды. При расчете учитывается влияние влажности воздуха и скорости ветра на теплоощущения человека.
Tes - Эффективная температура на солнце - температура, которую ощущает человек, с поправкой на солнечный нагрев. Характеристика знойности погоды. Зависит от высоты солнца над горизонтом, облачности и скорости ветра. Ночью, в пасмурную погоду, а также при ветре 12 м/с и более поправка равна нулю.
P - Атмосферное давление - приведенное к уровню моря атмосферное давление.
Po - Атмосферное давление - измеренное на уровне метеостанции атмосферное давление.
Tmin - Минимальная температура - минимум температуры воздуха на высоте 2 м над землей.
Tmax - Максимальная температура - максимум температуры воздуха на высоте 2 м над землей.
R - Количество осадков - Количество выпавших осадков за период времени, мм. При наведении курсора мыши на число - период времени, за который выпало указанное количество осадков.
R24 - Количество осадков - Количество выпавших осадков за 24 часа, мм.
S - Снежный покров - Высота снежного покрова, см. При наведении курсора мыши на число - состояние снежного покрова и степень покрытия местности в баллах.